Total_Precipitation_Accumulation
0.04 0.05 0.04 0.04 0.04 0.04 0.04 0.04 0.04 0.04 0.03 0.04 0.03 0.03 0.02 0.03 0.03 0.03 0.03 0.03 0.02 0.02 0.01 0.01 0.01 0.01 0.00 0.01 0.01 0.00 0.00 0.00 0.00 0.00 0.00 0.00 0.00 0.00 0.00 0.00 0.00 0.00 0.00 0.00 0.00 0.00 0.00 0.00 0.00 0.00 0.00 0.00 0.00 0.00 0.00 0.00 0.00 0.00 0.00 0.00 0.00 0.00 0.00 0.00 0.00 0.00 0.00 0.00 0.00 0.00 0.00 0.00 0.00 0.00 0.00 0.00 0.00 0.00 0.01 0.03 0.02 0.02 0.08 0.12 0.09 0.13 0.03 0.13
0.03 0.03 0.04 0.03 0.03 0.04 0.03 0.04 0.03 0.03 0.03 0.02 0.03 0.03 0.03 0.03 0.03 0.02 0.03 0.03 0.02 0.02 0.02 0.02 0.01 0.00 0.01 0.01 0.00 0.00 0.00 0.00 0.00 0.00 0.00 0.00 0.00 0.00 0.00 0.00 0.00 0.00 0.00 0.00 0.00 0.00 0.00 0.00 0.00 0.00 0.00 0.00 0.00 0.00 0.00 0.00 0.00 0.00 0.00 0.00 0.00 0.00 0.00 0.00 0.00 0.00 0.00 0.00 0.00 0.00 0.00 0.00 0.00 0.00 0.00 0.05 0.01 0.00 0.01 0.01 0.03 0.14 0.12 0.13 0.17 0.09 0.12 0.11
0.03 0.03 0.04 0.02 0.02 0.03 0.03 0.02 0.03 0.02 0.02 0.01 0.01 0.02 0.02 0.02 0.03 0.02 0.02 0.03 0.02 0.02 0.02 0.02 0.01 0.01 0.01 0.00 0.00 0.00 0.00 0.00 0.00 0.00 0.00 0.00 0.00 0.00 0.00 0.00 0.00 0.00 0.00 0.00 0.00 0.00 0.00 0.00 0.00 0.00 0.00 0.00 0.00 0.00 0.00 0.00 0.00 0.00 0.00 0.00 0.00 0.00 0.00 0.00 0.00 0.00 0.00 0.00 0.00 0.00 0.00 0.00 0.00 0.00 0.00 0.00 0.04 0.00 0.02 0.05 0.05 0.18 0.39 0.15 0.16 0.14 0.15 0.21
0.03 0.03 0.03 0.02 0.03 0.03 0.02 0.02 0.01 0.02 0.02 0.02 0.02 0.02 0.02 0.02 0.02 0.03 0.02 0.02 0.02 0.01 0.01 0.01 0.01 0.01 0.00 0.00 0.00 0.00 0.00 0.00 0.00 0.00 0.00 0.00 0.00 0.00 0.00 0.00 0.00 0.00 0.00 0.00 0.00 0.00 0.00 0.00 0.00 0.00 0.00 0.00 0.00 0.00 0.00 0.00 0.00 0.00 0.00 0.00 0.00 0.00 0.00 0.00 0.00 0.00 0.00 0.00 0.00 0.00 0.00 0.00 0.00 0.00 0.00 0.00 0.04 0.06 0.17 0.01 0.03 0.19 0.21 0.20 0.09 0.08 0.16 0.30
0.02 0.03 0.03 0.02 0.03 0.04 0.03 0.02 0.02 0.02 0.03 0.03 0.03 0.03 0.04 0.02 0.02 0.02 0.02 0.02 0.01 0.01 0.01 0.01 0.00 0.00 0.00 0.00 0.00 0.00 0.00 0.00 0.00 0.00 0.00 0.00 0.00 0.00 0.00 0.00 0.00 0.00 0.00 0.00 0.00 0.00 0.00 0.00 0.00 0.00 0.00 0.00 0.00 0.00 0.00 0.00 0.00 0.00 0.00 0.00 0.00 0.00 0.00 0.00 0.00 0.00 0.00 0.00 0.00 0.00 0.00 0.00 0.00 0.00 0.00 0.00 0.00 0.02 0.01 0.01 0.01 0.03 0.04 0.15 0.15 0.16 0.17 0.29
0.02 0.03 0.02 0.03 0.03 0.02 0.02 0.02 0.02 0.03 0.03 0.03 0.04 0.04 0.03 0.02 0.02 0.02 0.02 0.02 0.01 0.01 0.01 0.00 0.00 0.00 0.00 0.00 0.00 0.00 0.00 0.00 0.00 0.00 0.00 0.00 0.00 0.00 0.00 0.00 0.00 0.00 0.00 0.00 0.00 0.00 0.00 0.00 0.00 0.00 0.00 0.00 0.00 0.00 0.00 0.00 0.00 0.00 0.00 0.00 0.00 0.00 0.00 0.00 0.00 0.00 0.00 0.00 0.00 0.00 0.00 0.00 0.00 0.00 0.00 0.00 0.00 0.00 0.00 0.01 0.05 0.10 0.06 0.10 0.14 0.31 0.24 0.42
0.02 0.02 0.03 0.02 0.02 0.02 0.01 0.02 0.01 0.02 0.02 0.04 0.03 0.03 0.02 0.02 0.02 0.01 0.01 0.01 0.01 0.01 0.01 0.00 0.00 0.00 0.00 0.00 0.00 0.00 0.00 0.00 0.00 0.00 0.00 0.00 0.00 0.00 0.00 0.00 0.00 0.00 0.00 0.00 0.00 0.00 0.00 0.00 0.00 0.00 0.00 0.00 0.00 0.00 0.00 0.00 0.00 0.00 0.00 0.00 0.00 0.00 0.00 0.00 0.00 0.00 0.00 0.00 0.00 0.00 0.00 0.00 0.00 0.00 0.00 0.00 0.00 0.00 0.00 0.02 0.03 0.08 0.11 0.12 0.11 0.20 0.37 0.77
0.02 0.02 0.02 0.02 0.01 0.01 0.02 0.03 0.03 0.02 0.02 0.03 0.02 0.02 0.02 0.02 0.02 0.01 0.01 0.01 0.01 0.00 0.01 0.00 0.00 0.00 0.00 0.00 0.00 0.00 0.00 0.00 0.00 0.00 0.00 0.00 0.00 0.00 0.00 0.00 0.00 0.00 0.00 0.00 0.00 0.00 0.00 0.00 0.00 0.00 0.00 0.00 0.00 0.00 0.00 0.00 0.00 0.00 0.00 0.00 0.00 0.00 0.00 0.00 0.00 0.00 0.00 0.00 0.00 0.00 0.00 0.00 0.00 0.00 0.00 0.00 0.00 0.00 0.00 0.00 0.02 0.04 0.10 0.13 0.07 0.12 0.39 0.66
0.02 0.01 0.02 0.02 0.01 0.02 0.03 0.03 0.02 0.02 0.03 0.03 0.03 0.03 0.03 0.03 0.03 0.02 0.01 0.01 0.01 0.01 0.00 0.00 0.00 0.00 0.00 0.00 0.00 0.00 0.00 0.00 0.00 0.00 0.00 0.00 0.00 0.00 0.00 0.00 0.00 0.00 0.00 0.00 0.00 0.00 0.00 0.00 0.00 0.00 0.00 0.00 0.00 0.00 0.00 0.00 0.00 0.00 0.00 0.00 0.00 0.00 0.00 0.00 0.00 0.00 0.00 0.00 0.00 0.00 0.00 0.00 0.00 0.00 0.00 0.00 0.00 0.00 0.00 0.00 0.02 0.06 0.12 0.15 0.14 0.14 0.25 0.90
0.01 0.01 0.01 0.01 0.03 0.03 0.03 0.02 0.02 0.02 0.02 0.02 0.02 0.02 0.03 0.02 0.02 0.02 0.01 0.01 0.00 0.00 0.01 0.00 0.00 0.00 0.00 0.00 0.00 0.00 0.00 0.00 0.00 0.00 0.00 0.00 0.00 0.00 0.00 0.00 0.00 0.00 0.00 0.00 0.00 0.00 0.00 0.00 0.00 0.00 0.00 0.00 0.00 0.00 0.00 0.00 0.00 0.00 0.00 0.00 0.00 0.00 0.00 0.00 0.00 0.00 0.00 0.00 0.00 0.00 0.00 0.00 0.00 0.00 0.00 0.00 0.00 0.00 0.01 0.00 0.04 0.06 0.11 0.16 0.17 0.27 0.45 0.35
0.01 0.01 0.01 0.02 0.01 0.02 0.01 0.01 0.01 0.01 0.01 0.01 0.01 0.02 0.02 0.01 0.01 0.01 0.01 0.00 0.00 0.00 0.01 0.00 0.00 0.00 0.00 0.00 0.00 0.00 0.00 0.00 0.00 0.00 0.00 0.00 0.00 0.00 0.00 0.00 0.00 0.00 0.00 0.00 0.00 0.00 0.00 0.00 0.00 0.00 0.00 0.00 0.00 0.00 0.00 0.00 0.00 0.00 0.00 0.00 0.00 0.00 0.00 0.00 0.00 0.00 0.00 0.00 0.00 0.00 0.00 0.00 0.00 0.00 0.00 0.01 0.00 0.00 0.05 0.01 0.03 0.06 0.05 0.11 0.27 0.23 0.17 0.25
0.01 0.01 0.01 0.01 0.01 0.00 0.00 0.00 0.01 0.01 0.01 0.01 0.01 0.01 0.01 0.01 0.01 0.01 0.02 0.01 0.00 0.00 0.00 0.00 0.01 0.00 0.00 0.00 0.00 0.00 0.00 0.00 0.00 0.00 0.00 0.00 0.00 0.00 0.00 0.00 0.00 0.00 0.00 0.00 0.00 0.00 0.00 0.00 0.00 0.00 0.00 0.00 0.00 0.00 0.00 0.00 0.00 0.00 0.00 0.00 0.00 0.00 0.00 0.00 0.00 0.00 0.00 0.00 0.00 0.00 0.00 0.00 0.00 0.00 0.00 0.00 0.01 0.00 0.02 0.02 0.04 0.04 0.11 0.14 0.30 0.32 0.29 0.30
0.01 0.01 0.00 0.00 0.00 0.01 0.01 0.01 0.01 0.01 0.01 0.01 0.01 0.01 0.01 0.01 0.01 0.02 0.01 0.01 0.00 0.00 0.00 0.00 0.00 0.00 0.00 0.00 0.00 0.00 0.00 0.00 0.00 0.00 0.00 0.00 0.00 0.00 0.00 0.00 0.00 0.00 0.00 0.00 0.00 0.00 0.00 0.00 0.00 0.00 0.00 0.00 0.00 0.00 0.00 0.00 0.00 0.00 0.00 0.00 0.00 0.00 0.00 0.00 0.00 0.00 0.00 0.00 0.00 0.00 0.00 0.00 0.00 0.00 0.00 0.01 0.01 0.00 0.01 0.07 0.07 0.09 0.12 0.12 0.11 0.41 0.48 0.49
0.01 0.00 0.00 0.01 0.00 0.00 0.01 0.01 0.01 0.01 0.01 0.01 0.02 0.01 0.01 0.00 0.01 0.01 0.01 0.01 0.00 0.01 0.02 0.02 0.01 0.00 0.00 0.00 0.00 0.00 0.00 0.00 0.00 0.00 0.00 0.00 0.00 0.00 0.00 0.00 0.00 0.00 0.00 0.00 0.00 0.00 0.00 0.00 0.00 0.00 0.00 0.00 0.00 0.00 0.00 0.00 0.00 0.00 0.00 0.00 0.00 0.00 0.00 0.00 0.00 0.00 0.00 0.00 0.00 0.00 0.00 0.00 0.00 0.00 0.00 0.01 0.01 0.00 0.01 0.02 0.10 0.07 0.12 0.12 0.07 0.13 0.29 0.32
0.01 0.00 0.00 0.00 0.00 0.00 0.00 0.00 0.00 0.01 0.01 0.01 0.01 0.01 0.00 0.01 0.01 0.01 0.01 0.01 0.01 0.00 0.01 0.00 0.01 0.00 0.00 0.00 0.00 0.00 0.00 0.00 0.00 0.00 0.00 0.00 0.00 0.00 0.00 0.00 0.00 0.00 0.00 0.00 0.00 0.00 0.00 0.00 0.00 0.00 0.00 0.00 0.00 0.00 0.00 0.00 0.00 0.00 0.00 0.00 0.00 0.00 0.00 0.00 0.00 0.00 0.00 0.00 0.00 0.00 0.00 0.00 0.00 0.00 0.00 0.01 0.01 0.00 0.00 0.03 0.14 0.08 0.10 0.11 0.06 0.16 0.23 0.34
0.00 0.00 0.00 0.00 0.00 0.00 0.00 0.00 0.00 0.00 0.01 0.01 0.01 0.00 0.00 0.01 0.01 0.01 0.01 0.01 0.01 0.01 0.01 0.00 0.00 0.00 0.00 0.00 0.00 0.00 0.00 0.00 0.00 0.00 0.00 0.00 0.00 0.00 0.00 0.00 0.00 0.00 0.00 0.00 0.00 0.00 0.00 0.00 0.00 0.00 0.00 0.00 0.00 0.00 0.00 0.00 0.00 0.00 0.00 0.00 0.00 0.00 0.00 0.00 0.00 0.00 0.00 0.00 0.00 0.00 0.00 0.00 0.00 0.00 0.00 0.01 0.01 0.00 0.01 0.09 0.05 0.08 0.08 0.10 0.12 0.08 0.06 0.21
0.00 0.00 0.00 0.00 0.00 0.00 0.00 0.00 0.00 0.00 0.00 0.00 0.00 0.00 0.00 0.00 0.00 0.00 0.01 0.02 0.02 0.01 0.00 0.00 0.00 0.00 0.01 0.00 0.00 0.00 0.00 0.00 0.00 0.00 0.00 0.00 0.00 0.00 0.00 0.00 0.00 0.00 0.00 0.00 0.00 0.00 0.00 0.00 0.00 0.00 0.00 0.00 0.00 0.00 0.00 0.00 0.00 0.00 0.00 0.00 0.00 0.00 0.00 0.00 0.00 0.00 0.00 0.00 0.00 0.00 0.00 0.00 0.00 0.00 0.00 0.02 0.01 0.01 0.02 0.02 0.09 0.08 0.05 0.08 0.16 0.12 0.07 0.06
0.00 0.00 0.00 0.00 0.00 0.00 0.00 0.00 0.00 0.00 0.00 0.00 0.00 0.00 0.00 0.00 0.01 0.00 0.01 0.01 0.01 0.01 0.00 0.00 0.00 0.00 0.00 0.00 0.00 0.00 0.00 0.00 0.00 0.00 0.00 0.00 0.00 0.00 0.00 0.00 0.00 0.00 0.00 0.00 0.00 0.00 0.00 0.00 0.00 0.00 0.00 0.00 0.00 0.00 0.00 0.00 0.00 0.00 0.00 0.00 0.00 0.00 0.00 0.00 0.00 0.00 0.00 0.00 0.00 0.00 0.00 0.00 0.00 0.00 0.01 0.00 0.02 0.01 0.01 0.01 0.04 0.18 0.15 0.26 0.37 0.37 0.15 0.09
0.00 0.00 0.00 0.00 0.00 0.00 0.00 0.00 0.00 0.00 0.00 0.00 0.01 0.00 0.00 0.01 0.01 0.00 0.00 0.01 0.00 0.00 0.00 0.00 0.00 0.00 0.01 0.00 0.00 0.00 0.00 0.00 0.00 0.00 0.00 0.00 0.00 0.00 0.00 0.00 0.00 0.00 0.00 0.00 0.00 0.00 0.00 0.00 0.00 0.00 0.00 0.00 0.00 0.00 0.00 0.00 0.00 0.00 0.00 0.00 0.00 0.00 0.00 0.00 0.00 0.00 0.00 0.00 0.00 0.00 0.00 0.00 0.00 0.00 0.01 0.01 0.01 0.01 0.01 0.02 0.04 0.06 0.21 0.13 0.11 0.08 0.20 0.15
0.00 0.00 0.00 0.00 0.00 0.00 0.00 0.00 0.00 0.00 0.00 0.00 0.00 0.00 0.00 0.00 0.00 0.00 0.00 0.00 0.00 0.00 0.00 0.00 0.00 0.00 0.00 0.00 0.00 0.00 0.00 0.00 0.00 0.00 0.00 0.00 0.00 0.00 0.00 0.00 0.00 0.00 0.00 0.00 0.00 0.00 0.00 0.00 0.00 0.00 0.00 0.00 0.00 0.00 0.00 0.00 0.00 0.00 0.00 0.00 0.00 0.00 0.00 0.00 0.00 0.00 0.00 0.00 0.00 0.00 0.00 0.00 0.00 0.00 0.01 0.00 0.01 0.01 0.01 0.02 0.02 0.04 0.07 0.09 0.18 0.20 0.06 0.07
0.00 0.00 0.00 0.00 0.00 0.00 0.00 0.00 0.00 0.00 0.01 0.00 0.00 0.00 0.01 0.00 0.00 0.05 0.00 0.00 0.00 0.00 0.00 0.00 0.00 0.00 0.00 0.00 0.00 0.00 0.00 0.00 0.00 0.00 0.00 0.00 0.00 0.00 0.00 0.00 0.00 0.00 0.00 0.00 0.00 0.00 0.00 0.00 0.00 0.00 0.00 0.00 0.00 0.00 0.00 0.00 0.00 0.00 0.00 0.00 0.00 0.00 0.00 0.00 0.00 0.00 0.00 0.00 0.00 0.00 0.00 0.00 0.00 0.00 0.01 0.01 0.02 0.01 0.01 0.01 0.01 0.01 0.02 0.04 0.06 0.09 0.10 0.13
0.00 0.00 0.00 0.00 0.00 0.00 0.00 0.00 0.00 0.00 0.01 0.01 0.00 0.00 0.00 0.00 0.00 0.00 0.00 0.00 0.00 0.00 0.00 0.00 0.00 0.00 0.00 0.00 0.00 0.00 0.00 0.00 0.00 0.00 0.00 0.00 0.00 0.00 0.00 0.00 0.00 0.00 0.00 0.00 0.00 0.00 0.00 0.00 0.00 0.00 0.00 0.00 0.00 0.00 0.00 0.00 0.00 0.00 0.00 0.00 0.00 0.00 0.00 0.00 0.00 0.00 0.00 0.00 0.00 0.00 0.00 0.00 0.00 0.00 0.00 0.02 0.02 0.01 0.01 0.00 0.00 0.00 0.01 0.01 0.03 0.08 0.11 0.14
0.00 0.00 0.00 0.00 0.00 0.00 0.00 0.00 0.01 0.01 0.00 0.00 0.00 0.00 0.00 0.00 0.00 0.00 0.00 0.00 0.00 0.00 0.00 0.00 0.00 0.00 0.00 0.00 0.00 0.00 0.00 0.00 0.00 0.00 0.00 0.00 0.00 0.00 0.00 0.00 0.00 0.00 0.00 0.00 0.00 0.00 0.00 0.00 0.00 0.00 0.00 0.00 0.00 0.00 0.00 0.00 0.00 0.00 0.00 0.01 0.00 0.00 0.00 0.03 0.00 0.00 0.00 0.00 0.00 0.00 0.00 0.00 0.00 0.00 0.00 0.01 0.01 0.01 0.01 0.01 0.00 0.01 0.01 0.01 0.01 0.06 0.11 0.09
0.00 0.00 0.00 0.00 0.00 0.00 0.00 0.00 0.01 0.01 0.00 0.00 0.00 0.00 0.00 0.00 0.00 0.00 0.00 0.00 0.01 0.00 0.00 0.00 0.00 0.00 0.00 0.00 0.00 0.00 0.00 0.00 0.00 0.00 0.00 0.00 0.00 0.00 0.00 0.00 0.00 0.00 0.00 0.00 0.00 0.00 0.01 0.01 0.00 0.00 0.00 0.00 0.00 0.00 0.00 0.00 0.00 0.00 0.00 0.00 0.00 0.00 0.00 0.00 0.07 0.00 0.00 0.00 0.00 0.00 0.00 0.00 0.00 0.00 0.00 0.00 0.00 0.00 0.00 0.01 0.01 0.01 0.01 0.02 0.07 0.06 0.07 0.13
0.00 0.00 0.00 0.00 0.00 0.00 0.00 0.01 0.00 0.00 0.00 0.00 0.00 0.00 0.00 0.00 0.00 0.00 0.00 0.00 0.00 0.00 0.00 0.00 0.00 0.00 0.00 0.00 0.00 0.00 0.00 0.00 0.00 0.00 0.00 0.00 0.00 0.00 0.00 0.00 0.00 0.00 0.00 0.00 0.00 0.00 0.01 0.00 0.00 0.00 0.00 0.00 0.00 0.00 0.00 0.00 0.00 0.00 0.00 0.00 0.00 0.00 0.00 0.00 0.00 0.00 0.00 0.02 0.00 0.00 0.03 0.00 0.01 0.00 0.00 0.00 0.00 0.00 0.00 0.00 0.00 0.01 0.01 0.02 0.05 0.06 0.21 0.19
0.00 0.00 0.00 0.00 0.00 0.00 0.00 0.00 0.00 0.00 0.00 0.00 0.00 0.00 0.00 0.00 0.00 0.00 0.00 0.03 0.14 0.01 0.00 0.00 0.00 0.00 0.00 0.00 0.00 0.00 0.00 0.00 0.00 0.00 0.00 0.00 0.00 0.00 0.00 0.00 0.00 0.00 0.00 0.00 0.00 0.00 0.01 0.00 0.00 0.00 0.00 0.00 0.00 0.00 0.00 0.00 0.00 0.00 0.02 0.00 0.00 0.00 0.00 0.00 0.00 0.00 0.01 0.05 0.06 0.00 0.01 0.03 0.00 0.01 0.00 0.00 0.00 0.00 0.00 0.00 0.00 0.03 0.01 0.02 0.06 0.05 0.17 0.17
0.00 0.00 0.00 0.00 0.00 0.01 0.00 0.00 0.00 0.00 0.00 0.00 0.00 0.00 0.00 0.00 0.00 0.00 0.03 0.21 0.15 0.02 0.00 0.00 0.00 0.00 0.00 0.00 0.00 0.00 0.01 0.02 0.00 0.00 0.00 0.00 0.00 0.00 0.00 0.00 0.00 0.00 0.00 0.00 0.00 0.00 0.00 0.00 0.00 0.00 0.00 0.00 0.00 0.00 0.00 0.00 0.01 0.02 0.02 0.00 0.00 0.00 0.00 0.00 0.00 0.00 0.03 0.00 0.04 0.00 0.00 0.02 0.01 0.05 0.00 0.00 0.00 0.00 0.00 0.00 0.01 0.03 0.03 0.14 0.18 0.17 0.14 0.18
0.00 0.00 0.00 0.00 0.00 0.01 0.01 0.01 0.00 0.00 0.00 0.00 0.00 0.00 0.00 0.00 0.00 0.00 0.03 0.16 0.03 0.00 0.04 0.00 0.00 0.00 0.00 0.00 0.00 0.00 0.01 0.00 0.01 0.00 0.00 0.00 0.00 0.00 0.00 0.00 0.00 0.00 0.00 0.00 0.02 0.01 0.00 0.00 0.00 0.00 0.00 0.00 0.00 0.00 0.00 0.00 0.00 0.04 0.00 0.00 0.00 0.00 0.03 0.00 0.00 0.02 0.07 0.01 0.09 0.01 0.00 0.01 0.04 0.05 0.00 0.00 0.00 0.02 0.02 0.00 0.04 0.02 0.11 0.24 0.27 0.31 0.14 0.28
0.00 0.00 0.00 0.00 0.00 0.01 0.01 0.00 0.00 0.00 0.00 0.00 0.00 0.00 0.00 0.00 0.00 0.01 0.37 0.13 0.02 0.00 0.00 0.00 0.00 0.00 0.00 0.00 0.00 0.00 0.00 0.00 0.01 0.01 0.00 0.00 0.00 0.00 0.00 0.00 0.00 0.00 0.00 0.00 0.02 0.01 0.00 0.00 0.00 0.00 0.00 0.00 0.00 0.00 0.00 0.00 0.01 0.00 0.00 0.00 0.00 0.00 0.00 0.00 0.01 0.00 0.06 0.01 0.04 0.04 0.06 0.03 0.03 0.03 0.01 0.00 0.01 0.03 0.06 0.01 0.04 0.05 0.10 0.22 0.28 0.25 0.39 0.55
0.00 0.00 0.01 0.01 0.01 0.00 0.00 0.01 0.00 0.00 0.00 0.00 0.00 0.00 0.00 0.00 0.00 0.06 0.08 0.02 0.00 0.19 0.00 0.01 0.00 0.00 0.00 0.00 0.00 0.00 0.00 0.00 0.00 0.00 0.00 0.00 0.00 0.00 0.00 0.00 0.00 0.00 0.00 0.00 0.00 0.00 0.00 0.00 0.00 0.00 0.00 0.00 0.00 0.00 0.00 0.00 0.00 0.00 0.00 0.00 0.01 0.00 0.01 0.00 0.00 0.04 0.04 0.02 0.02 0.02 0.04 0.00 0.07 0.12 0.07 0.14 0.03 0.05 0.01 0.07 0.01 0.03 0.07 0.08 0.07 0.16 0.23 0.31
0.00 0.00 0.01 0.01 0.02 0.00 0.00 0.00 0.00 0.00 0.00 0.00 0.00 0.00 0.00 0.00 0.12 0.09 0.02 0.14 0.00 0.01 0.00 0.00 0.00 0.00 0.00 0.00 0.05 0.00 0.00 0.00 0.00 0.00 0.00 0.00 0.00 0.00 0.00 0.00 0.00 0.00 0.00 0.01 0.00 0.00 0.00 0.00 0.00 0.00 0.00 0.00 0.00 0.00 0.00 0.00 0.00 0.00 0.00 0.01 0.00 0.01 0.01 0.01 0.05 0.04 0.14 0.01 0.03 0.01 0.02 0.06 0.10 0.15 0.05 0.08 0.00 0.01 0.03 0.09 0.09 0.02 0.02 0.03 0.08 0.11 0.28 0.23
0.00 0.01 0.01 0.05 0.01 0.02 0.00 0.00 0.00 0.00 0.00 0.00 0.00 0.00 0.00 0.09 0.02 0.05 0.02 0.00 0.09 0.04 0.04 0.03 0.00 0.00 0.00 0.00 0.00 0.00 0.03 0.00 0.00 0.00 0.01 0.00 0.01 0.00 0.00 0.01 0.00 0.00 0.03 0.00 0.02 0.00 0.00 0.00 0.00 0.00 0.00 0.00 0.00 0.00 0.00 0.00 0.00 0.00 0.00 0.01 0.12 0.16 0.02 0.12 0.08 0.06 0.04 0.03 0.11 0.01 0.03 0.06 0.01 0.22 0.08 0.06 0.04 0.01 0.01 0.03 0.04 0.02 0.02 0.03 0.05 0.10 0.13 0.20
0.00 0.01 0.01 0.01 0.01 0.01 0.00 0.00 0.00 0.00 0.00 0.00 0.00 0.00 0.01 0.04 0.01 0.04 0.04 0.03 0.22 0.00 0.04 0.00 0.02 0.00 0.01 0.00 0.01 0.00 0.00 0.04 0.01 0.00 0.00 0.00 0.01 0.00 0.00 0.00 0.00 0.00 0.05 0.06 0.02 0.00 0.00 0.00 0.00 0.00 0.00 0.00 0.00 0.00 0.02 0.01 0.00 0.00 0.01 0.09 0.08 0.14 0.06 0.02 0.09 0.04 0.09 0.04 0.07 0.10 0.05 0.04 0.07 0.19 0.07 0.04 0.06 0.03 0.02 0.02 0.05 0.05 0.03 0.10 0.09 0.20 0.22 0.34
0.00 0.01 0.01 0.00 0.00 0.00 0.00 0.00 0.00 0.00 0.00 0.00 0.00 0.00 0.02 0.00 0.01 0.01 0.01 0.00 0.04 0.00 0.00 0.01 0.00 0.00 0.00 0.05 0.01 0.00 0.01 0.00 0.00 0.02 0.00 0.01 0.00 0.04 0.03 0.00 0.00 0.01 0.00 0.01 0.00 0.03 0.02 0.05 0.01 0.00 0.02 0.00 0.00 0.00 0.00 0.03 0.02 0.01 0.00 0.01 0.13 0.11 0.09 0.02 0.08 0.05 0.02 0.16 0.11 0.02 0.02 0.02 0.06 0.56 0.03 0.02 0.02 0.06 0.03 0.04 0.03 0.05 0.04 0.09 0.15 0.11 0.45 1.07
0.00 0.00 0.01 0.00 0.00 0.00 0.00 0.00 0.00 0.00 0.00 0.00 0.00 0.01 0.00 0.00 0.01 0.03 0.02 0.01 0.00 0.00 0.00 0.00 0.00 0.01 0.04 0.00 0.08 0.01 0.00 0.13 0.00 0.00 0.02 0.00 0.07 0.02 0.02 0.02 0.00 0.00 0.00 0.02 0.06 0.01 0.00 0.04 0.07 0.00 0.01 0.00 0.00 0.00 0.00 0.00 0.00 0.01 0.01 0.00 0.06 0.04 0.02 0.12 0.34 0.04 0.08 0.06 0.03 0.05 0.01 0.10 0.42 0.20 0.09 0.03 0.02 0.05 0.08 0.06 0.02 0.07 0.09 0.10 0.16 0.31 0.78 0.25
0.00 0.00 0.00 0.00 0.00 0.00 0.00 0.00 0.00 0.00 0.00 0.00 0.01 0.00 0.00 0.01 0.03 0.00 0.01 0.00 0.00 0.00 0.00 0.00 0.00 0.01 0.02 0.04 0.00 0.01 0.03 0.06 0.03 0.01 0.04 0.00 0.00 0.02 0.00 0.00 0.00 0.00 0.07 0.00 0.15 0.05 0.01 0.09 0.01 0.00 0.00 0.00 0.00 0.00 0.00 0.00 0.21 0.25 0.00 0.07 0.06 0.02 0.02 0.04 0.00 0.00 0.00 0.00 0.02 0.01 0.11 0.04 0.03 0.12 0.04 0.05 0.03 0.04 0.10 0.12 0.14 0.15 0.13 0.13 0.27 0.24 0.26 0.35
0.00 0.00 0.00 0.00 0.00 0.00 0.00 0.00 0.00 0.00 0.00 0.00 0.00 0.00 0.00 0.00 0.00 0.00 0.00 0.00 0.00 0.00 0.00 0.02 0.03 0.00 0.08 0.03 0.06 0.01 0.08 0.01 0.14 0.01 0.17 0.01 0.05 0.00 0.00 0.01 0.00 0.01 0.00 0.00 0.05 0.00 0.18 0.26 0.01 0.00 0.01 0.00 0.00 0.00 0.00 0.01 0.00 0.03 0.02 0.04 0.00 0.00 0.01 0.02 0.12 0.09 0.07 0.03 0.06 0.01 0.00 0.18 0.01 0.36 0.02 0.02 0.08 0.07 0.20 0.30 0.36 0.29 0.28 0.64 0.59 0.30 0.40 0.37
0.00 0.01 0.03 0.02 0.00 0.00 0.00 0.00 0.00 0.00 0.00 0.00 0.00 0.00 0.00 0.02 0.00 0.00 0.00 0.00 0.00 0.00 0.00 0.00 0.02 0.00 0.02 0.03 0.04 0.03 0.13 0.04 0.30 0.05 0.13 0.02 0.30 0.00 0.02 0.04 0.01 0.00 0.00 0.01 0.01 0.06 0.00 0.10 0.05 0.01 0.00 0.00 0.00 0.00 0.00 0.00 0.00 0.01 0.05 0.04 0.02 0.09 0.10 0.06 0.00 0.02 0.02 0.01 0.11 0.00 0.04 0.06 0.10 0.35 0.05 0.07 0.07 0.10 0.21 0.29 0.30 0.24 0.41 0.19 0.26 0.79 0.45 0.65
0.00 0.01 0.14 0.02 0.00 0.00 0.00 0.00 0.00 0.00 0.01 0.02 0.00 0.01 0.00 0.00 0.00 0.00 0.00 0.00 0.00 0.00 0.00 0.00 0.01 0.00 0.00 0.02 0.03 0.03 0.07 0.15 0.16 0.20 0.19 0.19 0.12 0.22 0.10 0.00 0.09 0.00 0.00 0.00 0.02 0.01 0.00 0.03 0.04 0.00 0.00 0.03 0.00 0.00 0.02 0.06 0.01 0.00 0.00 0.00 0.00 0.01 0.03 0.15 0.11 0.18 0.03 0.26 0.01 0.03 0.04 0.21 0.14 0.29 0.05 0.11 0.04 0.13 0.23 0.25 0.26 0.21 0.22 0.33 0.27 0.53 0.51 0.37
0.00 0.06 0.24 0.00 0.00 0.00 0.00 0.00 0.00 0.00 0.00 0.00 0.02 0.01 0.00 0.01 0.00 0.00 0.00 0.00 0.02 0.00 0.00 0.00 0.00 0.02 0.00 0.00 0.00 0.05 0.05 0.02 0.11 0.22 0.09 0.36 0.09 0.09 0.08 0.00 0.06 0.02 0.00 0.00 0.01 0.01 0.05 0.00 0.12 0.08 0.00 0.00 0.12 0.00 0.03 0.01 0.09 0.04 0.01 0.01 0.03 0.02 0.02 0.02 0.12 0.05 0.16 0.20 0.10 0.11 0.12 0.33 0.39 0.09 0.15 0.18 0.15 0.31 0.52 0.50 0.49 0.27 0.22 0.23 0.19 0.43 0.35 0.32
0.01 0.40 0.30 0.00 0.00 0.00 0.00 0.00 0.00 0.00 0.01 0.00 0.00 0.00 0.00 0.00 0.00 0.00 0.00 0.00 0.00 0.00 0.00 0.00 0.00 0.01 0.00 0.00 0.00 0.00 0.04 0.01 0.06 0.19 0.16 0.13 0.14 0.40 0.00 0.08 0.00 0.04 0.00 0.01 0.00 0.16 0.02 0.00 0.02 0.05 0.02 0.02 0.02 0.01 0.01 0.01 0.03 0.06 0.07 0.13 0.11 0.11 0.17 0.31 0.30 0.01 0.09 0.11 0.15 0.15 0.24 0.30 0.20 0.11 0.18 0.21 0.08 0.14 0.20 0.42 0.67 0.50 0.22 0.14 0.22 1.20 1.22 1.02
0.20 0.46 0.35 0.00 0.00 0.00 0.01 0.13 0.01 0.01 0.01 0.02 0.03 0.00 0.02 0.00 0.00 0.01 0.00 0.00 0.00 0.01 0.00 0.00 0.00 0.00 0.00 0.00 0.00 0.00 0.00 0.01 0.10 0.10 0.06 0.32 0.27 0.10 0.14 0.00 0.01 0.03 0.06 0.07 0.07 0.15 0.04 0.06 0.06 0.02 0.10 0.18 0.02 0.03 0.00 0.00 0.00 0.03 0.01 0.11 0.02 0.09 0.10 0.17 0.24 0.25 0.13 0.08 0.08 0.20 0.20 0.38 0.15 0.13 0.15 0.43 0.30 0.26 0.37 0.23 0.20 0.20 0.25 0.63 1.01 0.90 0.83 0.99
0.25 0.53 0.07 0.00 0.00 0.00 0.06 0.14 0.06 0.03 0.07 0.04 0.01 0.00 0.00 0.02 0.01 0.01 0.01 0.01 0.01 0.00 0.00 0.00 0.00 0.00 0.00 0.00 0.00 0.00 0.00 0.04 0.03 0.11 0.22 0.13 0.33 0.15 0.04 0.02 0.03 0.05 0.00 0.09 0.02 0.05 0.00 0.01 0.01 0.01 0.09 0.05 0.00 0.00 0.00 0.00 0.00 0.00 0.00 0.00 0.01 0.11 0.09 0.15 0.27 0.31 0.28 0.20 0.09 0.09 0.15 0.46 0.13 0.11 0.23 0.19 0.29 0.41 0.18 0.32 0.20 0.07 0.10 0.40 0.44 0.24 0.14 0.46
0.32 0.52 0.08 0.01 0.00 0.01 0.13 0.11 0.09 0.05 0.07 0.02 0.02 0.03 0.00 0.01 0.00 0.01 0.00 0.01 0.00 0.00 0.00 0.00 0.00 0.00 0.00 0.00 0.00 0.00 0.04 0.01 0.01 0.01 0.03 0.07 0.21 0.06 0.02 0.03 0.01 0.09 0.02 0.41 0.16 0.15 0.28 0.12 0.01 0.11 0.05 0.14 0.19 0.02 0.01 0.00 0.00 0.04 0.04 0.05 0.03 0.01 0.01 0.08 0.09 0.11 0.13 0.16 0.21 0.22 0.25 0.38 0.39 0.26 0.21 0.21 0.40 0.16 0.50 0.32 0.34 0.47 0.35 0.48 0.21 0.85 0.78 0.66
0.58 0.36 0.21 0.20 0.02 0.05 0.39 0.27 0.21 0.05 0.13 0.15 0.04 0.03 0.06 0.00 0.00 0.00 0.01 0.05 0.01 0.00 0.00 0.00 0.00 0.02 0.00 0.00 0.00 0.00 0.00 0.01 0.06 0.01 0.01 0.18 0.23 0.00 0.00 0.02 0.01 0.11 0.14 0.08 0.03 0.09 0.17 0.04 0.02 0.10 0.23 0.17 0.26 0.30 0.19 0.16 0.16 0.02 0.01 0.03 0.01 0.02 0.13 0.12 0.05 0.13 0.07 0.05 0.05 0.18 0.52 0.33 0.22 0.11 0.20 0.38 0.37 0.34 0.51 0.79 0.40 0.43 0.68 0.41 0.44 0.36 0.25 1.17
0.43 0.21 0.15 0.58 0.85 0.33 0.08 0.05 0.10 0.14 0.09 0.12 0.02 0.07 0.01 0.12 0.00 0.00 0.00 0.01 0.00 0.01 0.00 0.00 0.00 0.00 0.00 0.00 0.00 0.00 0.01 0.01 0.01 0.04 0.01 0.13 0.11 0.03 0.00 0.00 0.05 0.05 0.03 0.01 0.09 0.14 0.21 0.09 0.13 0.10 0.21 0.33 0.25 0.27 0.15 0.03 0.07 0.05 0.03 0.04 0.06 0.01 0.06 0.09 0.17 0.08 0.14 0.11 0.08 0.14 0.12 0.17 0.24 0.24 0.25 0.15 0.36 0.29 0.32 0.50 0.36 0.44 0.59 0.69 0.60 0.33 0.40 0.54
0.35 0.16 0.02 0.13 0.07 0.41 0.30 0.18 0.06 0.02 0.20 0.14 0.05 0.02 0.12 0.05 0.06 0.01 0.00 0.11 0.00 0.00 0.00 0.00 0.00 0.00 0.00 0.00 0.01 0.01 0.01 0.01 0.01 0.01 0.03 0.05 0.17 0.15 0.04 0.15 0.06 0.01 0.01 0.03 0.03 0.09 0.85 0.28 0.17 0.18 0.07 0.07 0.06 0.26 0.26 0.07 0.13 0.08 0.19 0.05 0.02 0.02 0.05 0.18 0.04 0.21 0.09 0.16 0.27 0.31 0.20 0.13 0.24 0.28 0.23 0.27 0.66 0.68 0.49 0.31 0.36 0.55 0.63 0.95 0.46 0.47 0.49 0.39
0.25 0.29 0.11 0.08 0.19 0.29 0.21 0.45 0.15 0.28 0.19 0.11 0.14 0.04 0.08 0.11 0.10 0.14 0.05 0.00 0.00 0.00 0.01 0.00 0.00 0.00 0.00 0.00 0.00 0.02 0.02 0.02 0.02 0.01 0.05 0.12 0.06 0.24 0.27 0.22 0.37 0.15 0.06 0.08 0.06 0.11 0.30 0.20 0.61 0.17 0.21 0.14 0.06 0.11 0.11 0.14 0.14 0.13 0.09 0.14 0.07 0.06 0.08 0.08 0.02 0.04 0.08 0.09 0.21 0.53 0.48 0.23 0.21 0.17 0.18 0.13 0.18 0.25 0.31 0.50 0.23 0.38 0.59 0.55 0.29 0.22 0.31 0.31
0.32 0.15 0.24 0.04 0.20 0.30 0.15 0.35 0.34 0.31 0.30 0.10 0.14 0.06 0.20 0.07 0.13 0.08 0.05 0.20 0.01 0.05 0.00 0.00 0.00 0.00 0.00 0.00 0.01 0.03 0.06 0.13 0.01 0.02 0.08 0.17 0.10 0.24 0.38 0.28 0.21 0.13 0.16 0.23 0.08 0.03 0.09 0.25 0.27 0.44 0.58 0.47 0.16 0.20 0.20 0.10 0.23 0.09 0.05 0.16 0.11 0.09 0.14 0.13 0.17 0.12 0.13 0.18 0.16 0.09 0.14 0.12 0.21 0.14 0.14 0.13 0.06 0.23 0.14 0.28 0.35 0.40 0.46 0.33 0.30 0.31 0.21 0.30
0.32 0.25 0.23 0.06 0.23 0.09 0.15 0.19 0.45 0.33 0.47 0.14 0.15 0.10 0.07 0.07 0.09 0.08 0.08 0.09 0.11 0.06 0.01 0.06 0.08 0.02 0.02 0.01 0.01 0.08 0.15 0.10 0.07 0.08 0.07 0.02 0.11 0.21 0.33 0.33 0.52 0.22 0.22 0.56 0.38 0.30 0.09 0.82 0.07 0.27 0.38 0.53 0.52 0.32 0.30 0.20 0.22 0.28 0.08 0.09 0.13 0.16 0.12 0.07 0.07 0.17 0.26 0.18 0.24 0.03 0.04 0.08 0.16 0.11 0.10 0.10 0.07 0.05 0.06 0.13 0.13 0.29 0.52 0.32 0.40 0.36 0.41 0.39
0.23 0.12 0.04 0.11 0.13 0.07 0.15 0.18 0.23 0.35 0.28 0.32 0.32 0.24 0.20 0.10 0.22 0.16 0.05 0.01 0.08 0.08 0.02 0.06 0.02 0.05 0.06 0.01 0.01 0.04 0.00 0.01 0.01 0.02 0.06 0.02 0.07 0.19 0.09 0.30 0.01 0.22 0.14 0.26 0.19 0.50 0.07 0.55 0.30 0.59 0.29 0.49 0.27 0.33 0.26 0.27 0.27 0.26 0.18 0.09 0.10 0.26 0.29 0.19 0.14 0.17 0.09 0.32 0.39 0.22 0.23 0.12 0.23 0.11 0.17 0.15 0.13 0.05 0.06 0.06 0.16 0.43 0.31 0.31 0.49 0.22 0.20 0.29
0.19 0.14 0.01 0.02 0.02 0.00 0.05 0.01 0.12 0.12 0.25 0.35 0.43 0.38 0.19 0.21 0.17 0.03 0.10 0.05 0.01 0.00 0.01 0.01 0.04 0.02 0.11 0.03 0.06 0.03 0.00 0.00 0.01 0.01 0.00 0.03 0.00 0.34 0.04 0.05 0.03 0.07 0.28 0.15 0.11 0.18 0.37 0.19 0.21 0.36 0.50 0.46 0.47 0.27 0.37 0.48 0.47 0.53 0.51 0.10 0.06 0.03 0.16 0.24 0.10 0.07 0.18 0.07 0.40 0.50 0.38 0.11 0.14 0.12 0.13 0.22 0.30 0.68 0.60 0.16 0.13 0.09 0.22 0.30 0.16 0.12 0.10 0.09